Location: Cactus School
(34.5700°N, 118.0931°W)
Time: 00:42:13
(UTC-07:00)

Transit 4A - Pass Details

Date: 16 April 2024
Orbit: 871 x 971 km, 66.8° (Epoch: 17 May)

Event Time Altitude Azimuth Distance (km) Brightness Sun altitude
Rises 01:00:38 0° 317° (NW) 3,464 11.3 -45.0°
Enters shadow 01:02:11 - 311° (NW) 2,961 10.9 -45.0°
Reaches altitude 10° 01:03:38 10° 302° (WNW) 2,528 - -45.0°
Maximum altitude 01:07:58 22° 254° (WSW) 1,834 - -44.9°
Drops below altitude 10° 01:12:20 10° 206° (SSW) 2,550 - -44.8°
Sets 01:15:23 0° 191° (S) 3,502 - -44.7°
